Home > Weather > Bălți > Past weeks

Flag for Moldova Past Weather in Bălți, Moldova — Yesterday and Last 2 Weeks

Now
68 °F

Mild.


Feels Like: 68 °F
Forecast: 66 / 87 °F
Wind: 8 mph from East

Location: Baltsi-Leadoveni - The North of Moldova

Current Time: Jun 25, 2016 at 4:51:27 AM

Latest Report: Jun 25, 2016 at 4:00 AM


Visibility: N/A

Pressure: 30.15 "Hg

Humidity: 78%

Dew Point: 61 °F

Location of BălțiLocation

Past Weather in Bălți — Graph

°F

Bălți Temperature Yesterday

Maximum temperature yesterday: 84 °F (at 4:00 PM)
Minimum temperature yesterday: 66 °F (at 6:00 AM)
Average temperature yesterday: 75 °F

High & Low Weather Summary for the Past Weeks

 TemperatureHumidityPressure
High91 °F (Jun 22, 4:00 PM)100% (Jun 13, 3:30 AM)30.27 "Hg (Jun 13, 3:30 AM)
Low52 °F (Jun 10, 5:30 AM)43% (Jun 18, 4:00 PM)29.47 "Hg (Jun 14, 4:00 PM)
Average71 °F75%29.93 "Hg
* Reported Jun 10 4:00 AM — Jun 25 4:00 AM, Bălți, Weather by CustomWeather, © 2016

Note: Actual official high and low records may vary slightly from our data, if they occured in-between our weather recording intervals... More about our weather records

Advertising

Bălți Weather History for the Previous 24 Hours

Scroll right to see more
 ConditionsComfort  
Time TempWeatherWind HumidityBarometerVisibility
4:00 AM
Sat, Jun 25
68 °FMild.8 mph78%30.15 "HgN/A
3:30 AM68 °FMild.8 mph78%30.15 "HgN/A
3:00 AM68 °FMild.9 mph83%30.15 "HgN/A
2:30 AM70 °FMild.8 mph78%30.15 "HgN/A
2:00 AM70 °FMild.8 mph78%30.15 "HgN/A
1:30 AM70 °FMild.8 mph78%30.15 "HgN/A
1:00 AM70 °FMild.7 mph83%30.18 "HgN/A
12:30 AM72 °FMild.7 mph78%30.15 "HgN/A
12:00 AM73 °FMild.8 mph74%30.15 "HgN/A
11:30 PM
Fri, Jun 24
73 °FMild.9 mph69%30.15 "HgN/A
11:00 PM73 °FMild.9 mph74%30.15 "HgN/A
10:30 PM75 °FMild.7 mph69%30.15 "HgN/A
10:00 PM75 °FMild.7 mph74%30.15 "HgN/A
9:30 PM77 °FWarm.7 mph69%30.15 "HgN/A
9:00 PM77 °FWarm.6 mph74%30.15 "HgN/A
8:30 PM79 °FWarm.5 mph70%30.15 "HgN/A
8:00 PM81 °FWarm.7 mph66%30.15 "HgN/A
7:30 PM82 °FWarm.7 mph62%30.15 "HgN/A
7:00 PM82 °FWarm.7 mph62%30.15 "HgN/A
6:30 PM82 °FWarm.8 mph62%30.15 "HgN/A
6:00 PM82 °FWarm.10 mph62%30.15 "HgN/A
5:30 PM82 °FWarm.8 mph62%30.15 "HgN/A
5:00 PM84 °FWarm.8 mph62%30.15 "HgN/A
4:30 PM84 °FWarm.7 mph58%30.18 "HgN/A
4:00 PM84 °FWarm.8 mph58%30.15 "HgN/A
3:30 PM82 °FWarm.6 mph62%30.15 "HgN/A
3:00 PM82 °FWarm.5 mph62%30.18 "HgN/A
2:30 PM81 °FWarm.6 mph66%30.18 "HgN/A
2:00 PM81 °FWarm.7 mph70%30.18 "HgN/A
1:30 PM81 °FWarm.5 mph70%30.18 "HgN/A
1:00 PM77 °FScattered clouds.6 mph79%30.21 "HgN/A
12:30 PM77 °FScattered clouds.6 mph79%30.21 "HgN/A
12:00 PM77 °FScattered clouds.5 mph74%30.21 "HgN/A
11:30 AM73 °FScattered clouds.5 mph83%30.21 "HgN/A
11:00 AM73 °FScattered clouds.5 mph83%30.21 "HgN/A
10:00 AM73 °FSunny.7 mph78%30.21 "Hg10 mi
9:30 AM73 °FPassing clouds.7 mph78%30.21 "HgN/A
9:00 AM73 °FPassing clouds.7 mph83%30.21 "HgN/A
8:30 AM72 °FPassing clouds.5 mph88%30.21 "HgN/A
8:00 AM70 °FMild.7 mph88%30.21 "HgN/A
7:30 AM68 °FMild.7 mph88%30.21 "HgN/A
7:00 AM68 °FMild.8 mph88%30.21 "HgN/A
6:30 AM68 °FMild.6 mph88%30.21 "HgN/A
6:00 AM66 °FMild.10 mph94%30.18 "HgN/A
5:30 AM68 °FMild.6 mph83%30.21 "HgN/A
5:00 AM68 °FMild.7 mph83%30.21 "HgN/A
4:30 AM68 °FMild.7 mph83%30.21 "HgN/A
4:00 AM68 °FMild.8 mph83%30.21 "HgN/A
Weather by CustomWeather, © 2016

See weather overviewHow to use our weather pages